Showing default

PROGRESS MS-32, 65586

Orbit data source: Space-Track

PROGRESS MS-32, 65586 is a payload satellite owned by RKKE (CIS) in LEO that was launched on Thu, 11 Sep 2025 UTC via a SOYUZ-2-1A launch vehicle from the Tyuratam Missile And Space Complex (TTMTR). Payload-class satellites include a variety of spacecraft equipped with specific instruments for various scientific and technological missions. These include communications satellites like Starlink; space stations such as the ISS; scientific satellites like the Hubble; Earth observation satellites from companies like Planet Labs, Umbra, and HawkEye 360; GPS; miniature CubeSats for education and research; and military/defense satellites.

Loading next visibility...
Identifier
65586, 2025-204A
Orbit
LEO
Country
Flag of CISCIS
Related business
None
Manufacturer
TsSKB-Progress
Mission
Operational spacecraft
Bus & Motor
7K-TGM, 11D428A
Mass
7,427 kg wet, 4,325 kg dry
Launch date (UTC)
2025-09-11 (1 week ago)
Launch vehicle
SOYUZ-2-1A
Launch site
Tyuratam Missile And Space Complex (TTMTR)
Object type
Payload
Rocket body
Debris
Shape & HBR
Unknown
Radar Cross Section
RCS unknown

Expand to show TLE details & history
Last TLE update: 17 hours ago

TLE from 17 hours ago
0 PROGRESS MS-32
1 65586U 25204A   25260.12361477  .00008550  00000-0  15572-3 0  9990
2 65586  51.6329 211.3907 0004353 348.5756  11.5133 15.50345634   576
Epoch: 2025-09-17T02:58Z
TLE epoch observation values (Epoch: 2025-09-17T02:58:00.316Z)
Latitude
-0.00004°
Longitude
170.58527°
Altitude
413.559 km
Speed
7.666 km/s
True Right ascension
14h 05m 33s
True Declination
0° 00' 00"
Sunlit
Object was in daylight at epoch
Visualization orbit readout
Latitude
Unknown
Longitude
Unknown
Altitude
Unknown
Speed
Unknown
Apparent Right ascension
Unknown
Apparent Declination
Unknown
Sunlit
N/A
Visualization observer readout
Local Sidereal Time
12:36:29
Azimuth
Unknown
Elevation
Unknown
Doppler factor
Unknown
Orbital elements
Apogee altitude
419.183 km
Perigee altitude
413.268 km
Semi-major axis
6,794.362 km
Eccentricity
0.00044
Inclination
51.6329°
RAAN
211.3907°
Arg. of periapsis
348.5756°
True anomaly
11.52326°
Mean anomaly
11.5133°
Eccentric anomaly
11.51828°
Mean motion
3.87543 °/min
Orbital period
92.89 mins
BSTAR
0.00015572
Loading maneuver chart data...
Computing Atmospheric mass density...
Loading historical data...
Loading historical data...
Loading historical data...
Loading historical data...
Loading historical data...
Loading historical data...
Loading historical data...
Other satellites on launch #204 in the year 2025 (2025-09-11 UTC)

Documentation

Showing up to 5 results
|